Terug naar catalogus

CZ-6A DEB

ActiefPO
NORAD 61816·DEBRIS·🇨🇳 China

Gelanceerd Aug 6, 2024 vanaf Taiyuan Satellite Launch Center

Loading…

Volgende Passages (komende 24 uur)

TLE

VersSource: Space-Track

Epoch: Sep 14, 2026, 00:46 UTC

1 61816U 24140ACG 26257.03220408  .00001926  00000-0  71114-3 0  9999
2 61816  89.1522 277.6357 0060580 290.9459  68.5260 14.31134466104909

Volg CZ-6A DEB in realtime met AllMySat

Download on the App Store